Weather in Tarasovo

Russia / Kemerovo Oblast     54°53′19″N   85°08′50″E
temp.,
°C
wind,
m/s
gust,
m/s
humid.,
%
clouds,
%
prec.,
mm/h
press.,
hPa
HPBL,
m
20 may, fri
fri2001:00+15wsw5137587 2.1 1009376
04:00+12sw5127656 0.0 1012288
07:00+13sw5116670 0.0 1013365
10:00+18wsw712371 0.0 10132362
13:00+21wsw812305 0.0 10132889
16:00+22w6112893 0.0 10123263
19:00+21wnw473789 0.0 1011654
22:00+16sw3347100 0.0 101244
21 may, sat
sat2101:00+13ssw3651100 0.0 101288
04:00+15ssw3648100 0.0 1011153
07:00+16wsw51055100 0.0 1012685
10:00+17w5847100 0.0 10141205
13:00+21w683674 0.0 10131839
16:00+24w593650 0.0 10101852
19:00+24wsw464031 0.0 10091642
22:00+18s335725 0.0 100921
22 may, sun
sun2201:00+16sse226316 0.0 100820
04:00+15se33655 0.0 100624
07:00+16ese266617 0.0 1005142
10:00+24e5841100 0.0 1004600
13:00+28e6728100 0.0 10021524
16:00+29se5525100 0.0 10022206
19:00+25ssw464498 0.0 1002283
22:00+21sw1155100 0.0 100416
23 may, mon
mon2301:00+20sw51159100 0.1 1006437
04:00+16wnw91566100 0.0 1010726
07:00+14wnw71339100 0.1 1015889
10:00+14w6839100 0.0 1019892
13:00+16wsw5635100 0.0 10211281
16:00+20ssw35280 0.0 10211998
19:00+20ssw34300 0.0 10201949
22:00+13s22535 0.0 102125
24 may, tue
tue2401:00+10sse22555 0.0 102215
04:00+9se225773 0.0 102118
07:00+11ese235651 0.0 1020109
10:00+18e23410 0.0 1019590
13:00+22nne3329100 0.0 10171222
16:00+24nne4427100 0.0 10161582
19:00+23n3433100 0.0 1015625
22:00+16nne3548100 0.0 101658